Location: Siratepeler Tepesi
(39.1042°N, 32.0781°E)
Time: 02:29:44
(UTC+00:00)

Aureole 1 Rocket - Pass Details

Date: 11 April 2026
Orbit: 373 x 1150 km, 73.9° (Epoch: 13 May)

Event Time Altitude Azimuth Distance (km) Brightness Sun altitude
Rises 16:53:28 0° 196° (SSW) 2,652 6.3 -6.2°
Reaches altitude 10° 16:55:47 10° 195° (SSW) 1,659 5.3 -6.6°
Maximum altitude 16:59:21 83° 108° (ESE) 437 2.2 -7.3°
Drops below altitude 10° 17:02:26 10° 20° (NNE) 1,443 4.9 -7.9°
Sets 17:04:20 0° 20° (NNE) 2,266 6.0 -8.2°
